Location: Newark
(39.0622°N, 106.5590°E)
Time: 22:08:06
(UTC+00:00)

S-56A Canister/Altair - Pass Details

Date: 27 January 2020
Orbit: 633 x 2499 km, 38.9° (Epoch: 19 February)

Event Time Altitude Azimuth Distance (km) Brightness Sun altitude
Rises 11:38:19 0° 231° (SW) 4,802 12.7 -17.6°
Reaches altitude 10° 11:42:08 10° 225° (SW) 3,502 11.7 -18.3°
Maximum altitude 11:49:54 44° 157° (SSE) 1,407 8.7 -19.8°
Enters shadow 11:52:11 32° 111° (ESE) 1,571 8.6 -20.3°
